星链-5054 (STARLINK-5054 )

导读

STARLINK-5054是美国太空探索技术公司(SpaceX)星链项目的卫星,于2022年9月24日发射。作为低轨卫星互联网星座的一员,它运行在近地轨道,采用先进通信技术与霍尔推进系统,旨在为全球提供高速低延迟宽带互联网服务,尤其侧重覆盖偏远区域,截至当前仍在轨运行,助力扩展星链网络覆盖与稳定性。

Basic Information
目录编号:
53906
目录名称:
STARLINK-5054
国际标识:
2022-119W
轨道中心:
EARTH
卫星名称:
星链-5054
卫星全名:
星链-5054 (STARLINK-5054 )
卫星状态:
在轨 (已飞行1362 天)
发射日期:
2022-09-24 UTC
国别 :
美国 (US)
星等 :
--
Orbit Information
数据来源 国际轨道数据 AOE轨道数据
星历时间 2026-06-17T05:10:07+0800
11小时前
查看轨道信息
2026-06-11T06:00:00+0800
6天前
查看轨道信息
半长轴 6917.877km 6917.86km
偏心率 0.0001195 0.0001091
轨道倾角 53.159° 53.159°
近地点辐角 96.725° 72.351°
升交点赤经 228.452° 255.269°
平近点角 263.388° 267.419°
近地点 538.913km 538.968km
远地点 540.567km 540.478km
周期 95.437分钟 95.437分钟
每日圈数 15.088414 15.088467
Detailed Information
固有亮度:
5
最大亮度:
2.5
卫星平台:
Starlink v1.5
覆盖范围:
全球
运营商:
太空探索技术公司
运营商所在国:
美国
制造商(研发单位):
太空探索技术公司
制造商所在国:
美国
使用方式:
暂无
Satellite Introduction
星链(Starlink)计划是由太空探索技术公司(SpaceX)提出的一个巨型低轨卫星互联网星座项目,计划在2019年至2024年间在太空搭建由约1.2万颗卫星组成的“星链”网络,其中1584颗将部署在地球上空550千米处的近地轨道,并从2020年开始工作。该卫星仍在工作。
2D Orbit Map
3D Orbit Map
Orbit Altitude Analysis Chart
Orbit Inclination Analysis Chart
Orbit Comprehensive Analysis Chart
View Comprehensive Chart